[[{"header":{"parameterUnit":"m.s-1","parameterCategory":1,"la1":30.2991,"la2":30.254,"lo1":-89.0895,"lo2":-89.0444,"dy":0.0017,"dx":0.0017,"nx":28,"ny":28,"refTime":"2025-04-24T21:00:00:Z","depth":0,"parameterNumber":2,"parameterNumberName":"U-component_of_WINDS"},"data":[0,0,0,0,0,0,0,0,0,0,0,0,0,0,0,0,0,0,0,0,0,0,0,0,0,0,0,0,0,0,0,0,0,0,0,0,0,0,0,0,0,0,0,0,0,0,0,0,0,0,0,0,0,0,0,0,0,0,-0.4055,-0.4054,0,-0.4013,-0.4013,-0.4012,-0.398,-0.3979,-0.3979,-0.3979,-0.3937,-0.3936,-0.3935,0,0,0,0,0,0,0,0,0,0,0,0,0,-0.4107,-0.4106,-0.4055,-0.4054,-0.4054,-0.4013,-0.4013,-0.4012,-0.398,-0.3979,-0.3979,-0.3979,-0.3937,-0.3936,-0.3935,0,0,0,0,0,0,0,0,0,0,0,0,0,-0.4077,-0.4106,-0.4055,-0.4033,-0.403,-0.4013,-0.4013,-0.4012,-0.398,-0.3979,-0.3979,-0.3978,-0.3938,-0.3936,-0.3935,-0.3937,0,0,-0.3931,-0.3931,0,0,0,0,0,0,0,0,-0.4078,-0.4075,-0.4036,-0.4034,-0.4031,-0.4001,-0.4016,-0.3987,-0.398,-0.3999,-0.3979,-0.3978,-0.3959,-0.3956,-0.3949,-0.3935,-0.3933,-0.3931,-0.3931,-0.393,-0.393,0,0,0,0,0,0,0,-0.4081,-0.4076,-0.4038,-0.4036,-0.4033,-0.4025,-0.402,-0.401,-0.3982,-0.3997,-0.3995,-0.399,-0.3957,-0.395,-0.3948,-0.3933,-0.3931,-0.393,-0.3929,-0.3929,-0.3919,-0.392,0,0,0,0,0,0,-0.4086,-0.4078,-0.404,-0.4037,-0.4054,-0.4024,-0.4019,-0.4011,-0.3982,-0.3977,-0.3991,-0.3989,-0.3953,-0.3949,-0.3946,-0.3947,-0.393,-0.3929,-0.3928,-0.3919,-0.3919,-0.392,0,0,0,0,0,0,-0.4087,-0.4083,-0.4041,-0.4057,-0.4051,-0.4024,-0.4016,-0.4011,-0.4004,-0.3977,-0.3972,-0.3989,-0.3952,-0.3948,-0.394,-0.3945,-0.3928,-0.3927,-0.3918,-0.3919,-0.392,-0.3948,0,0,0,0,0,0,-0.4089,-0.4083,-0.4084,-0.4057,-0.405,-0.4035,-0.4016,-0.401,-0.4002,-0.3999,-0.3974,-0.3969,-0.3951,-0.3942,-0.3939,-0.3943,-0.3926,-0.3918,-0.3919,-0.3919,-0.3947,-0.395,-0.3953,0,0,0,0,0,-0.4091,-0.4093,-0.4084,-0.4079,-0.405,-0.4036,-0.4032,-0.4011,-0.4002,-0.4002,-0.3985,-0.397,-0.3945,-0.3941,-0.3937,-0.3941,-0.3917,-0.3918,-0.3919,-0.3945,-0.3949,-0.3953,0,0,0,0,0,0,-0.4121,-0.409,-0.4079,-0.4073,-0.4057,-0.403,-0.403,-0.4016,-0.4002,-0.4,-0.3975,-0.397,-0.3965,-0.3952,-0.3948,-0.3942,-0.3929,-0.393,-0.395,-0.3954,-0.3957,-0.396,-0.3925,0,0,0,0,0,-0.4127,-0.4118,-0.4091,-0.4088,-0.4081,-0.4057,-0.405,-0.4035,-0.4018,-0.4011,-0.3994,-0.3978,-0.3967,-0.396,-0.3948,-0.3945,-0.3939,-0.3946,-0.3949,-0.3951,-0.3952,-0.395,-0.3953,-0.3923,-0.3923,-0.3923,0,0,-0.414,-0.4121,-0.4117,-0.4094,-0.408,-0.4071,-0.4051,-0.4043,-0.4036,-0.401,-0.4001,-0.3988,-0.3969,-0.3964,-0.396,-0.3953,-0.3959,-0.3953,-0.3955,-0.3954,-0.3952,-0.3954,-0.3957,-0.3924,-0.3924,-0.3924,0,0,-0.4158,-0.4143,-0.4139,-0.4126,-0.4105,-0.4089,-0.4088,-0.4063,-0.4054,-0.4044,-0.4025,-0.4017,-0.3997,-0.3985,-0.3976,-0.399,-0.3975,-0.3986,-0.4002,-0.4,-0.4002,-0.4004,-0.4009,-0.4011,-0.3987,-0.3987,-0.3987,0,-0.4176,-0.4161,-0.4139,-0.4132,-0.4122,-0.4098,-0.4095,-0.4083,-0.406,-0.4054,-0.4046,-0.4022,-0.4007,-0.3999,-0.4002,-0.3996,-0.3994,-0.3989,-0.4004,-0.4005,-0.4007,-0.4012,-0.4014,-0.3989,-0.3989,-0.3988,-0.3988,0,-0.4184,-0.4175,-0.4174,-0.4152,-0.4143,-0.4138,-0.4115,-0.4108,-0.4095,-0.408,-0.4071,-0.4053,-0.4037,-0.4034,-0.402,-0.4024,-0.402,-0.4008,-0.3995,-0.4012,-0.4016,-0.4017,-0.3991,-0.399,-0.399,-0.3989,0,0,-0.422,-0.4186,-0.4186,-0.4176,-0.4152,-0.4144,-0.4138,-0.4122,-0.4117,-0.4102,-0.4096,-0.4081,-0.407,-0.406,-0.4045,-0.4044,-0.4057,-0.4033,-0.4032,-0.4038,-0.4059,-0.4068,-0.407,-0.4047,-0.4047,-0.4047,-0.4061,0,-0.4234,-0.4221,-0.4201,-0.4195,-0.4186,-0.4163,-0.4158,-0.4143,-0.4129,-0.412,-0.4104,-0.4094,-0.408,-0.4074,-0.4072,-0.4056,-0.4061,-0.4054,-0.4042,-0.4042,-0.4047,-0.4072,-0.4082,-0.4095,-0.4062,-0.4063,-0.4063,0,-0.4248,-0.4235,-0.4228,-0.4204,-0.42,-0.4195,-0.418,-0.4171,-0.4154,-0.4143,-0.4133,-0.4116,-0.4109,-0.4097,-0.4087,-0.4083,-0.4077,-0.4068,-0.4068,-0.4066,-0.4053,-0.4071,-0.4099,-0.4101,-0.4065,-0.4065,-0.4065,0,-0.4275,-0.4255,-0.4248,-0.424,-0.4213,-0.421,-0.4199,-0.4181,-0.4173,-0.4159,-0.4154,-0.414,-0.4132,-0.4122,-0.4103,-0.4095,-0.4095,-0.4081,-0.4086,-0.4087,-0.4087,-0.4087,-0.4114,-0.4083,-0.4083,-0.4083,-0.4083,0,-0.4293,-0.4289,-0.426,-0.4255,-0.4251,-0.4229,-0.4225,-0.4212,-0.4196,-0.4189,-0.4169,-0.4163,-0.4138,-0.4129,-0.4114,-0.4108,-0.4105,-0.4097,-0.4093,-0.4098,-0.41,-0.4094,-0.4092,-0.4084,-0.4084,-0.4083,-0.4083,0,-0.4322,-0.4302,-0.4293,-0.4268,-0.4261,-0.4259,-0.4238,-0.4234,-0.4219,-0.421,-0.4207,-0.4184,-0.4172,-0.4152,-0.4135,-0.4125,-0.4122,-0.4115,-0.4128,-0.4126,-0.4132,-0.4132,-0.4157,-0.4159,-0.4127,-0.4127,-0.4127,0,-0.4334,-0.4331,-0.4306,-0.43,-0.4289,-0.4279,-0.4271,-0.4249,-0.4242,-0.4222,-0.422,-0.4207,-0.4195,-0.4178,-0.416,-0.4147,-0.414,-0.4149,-0.4138,-0.4144,-0.414,-0.414,-0.414,-0.4152,-0.4153,-0.4153,-0.4153,0,-0.4359,-0.4349,-0.4338,-0.4323,-0.4314,-0.4301,-0.4288,-0.4284,-0.4259,-0.4252,-0.424,-0.4231,-0.4214,-0.4201,-0.4186,-0.4175,-0.416,-0.4157,-0.4158,-0.4163,-0.4171,-0.4167,-0.4135,-0.4157,-0.4156,-0.4156,-0.4156,-0.4156,-0.438,-0.4376,-0.4358,-0.4346,-0.4334,-0.4322,-0.4316,-0.4301,-0.429,-0.4274,-0.4262,-0.4251,-0.4235,-0.4212,-0.4202,-0.4193,-0.4186,-0.4187,-0.4187,-0.4188,-0.419,-0.4172,-0.419,-0.419,-0.419,-0.419,-0.419,0,-0.4403,-0.439,-0.438,-0.4362,-0.4353,-0.434,-0.4324,-0.4318,-0.4308,-0.4294,-0.4283,-0.427,-0.4258,-0.4239,-0.4225,-0.4222,-0.4215,-0.4219,-0.4219,-0.4217,-0.4197,-0.4198,-0.4225,-0.4225,-0.4225,-0.4225,-0.4225,-0.4225,-0.4414,-0.4407,-0.4396,-0.4383,-0.437,-0.4359,-0.4351,-0.434,-0.4329,-0.4315,-0.4305,-0.4292,-0.4276,-0.4261,-0.425,-0.4245,-0.4241,-0.4247,-0.424,-0.4222,-0.4218,-0.4215,-0.4216,-0.4247,-0.4247,-0.426,-0.4261,-0.4261]},{"header":{"parameterUnit":"m.s-1","parameterCategory":1,"la1":30.2991,"la2":30.254,"lo1":-89.0895,"lo2":-89.0444,"dy":0.0017,"dx":0.0017,"nx":28,"ny":28,"refTime":"2025-04-24T21:00:00:Z","depth":0,"parameterNumber":3,"parameterNumberName":"V-component_of_WINDS"},"data":[0,0,0,0,0,0,0,0,0,0,0,0,0,0,0,0,0,0,0,0,0,0,0,0,0,0,0,0,0,0,0,0,0,0,0,0,0,0,0,0,0,0,0,0,0,0,0,0,0,0,0,0,0,0,0,0,0,0,1.4168,1.4168,0,1.412,1.4119,1.4119,1.4071,1.407,1.407,1.4069,1.4018,1.4017,1.4016,0,0,0,0,0,0,0,0,0,0,0,0,0,1.4219,1.4218,1.4168,1.4168,1.4167,1.412,1.4119,1.4119,1.4071,1.407,1.407,1.4069,1.4018,1.4017,1.4016,0,0,0,0,0,0,0,0,0,0,0,0,0,1.4186,1.4218,1.4168,1.4138,1.4135,1.412,1.4119,1.4118,1.4071,1.407,1.4069,1.4069,1.4018,1.4017,1.4016,1.4027,0,0,1.4012,1.4012,0,0,0,0,0,0,0,0,1.4188,1.4184,1.4143,1.414,1.4136,1.4101,1.4118,1.4088,1.4072,1.4095,1.4069,1.4068,1.4046,1.4042,1.4035,1.4025,1.4022,1.4012,1.4011,1.4011,1.4011,0,0,0,0,0,0,0,1.419,1.4186,1.4149,1.4142,1.4138,1.4126,1.412,1.4112,1.4076,1.4093,1.409,1.4085,1.4044,1.4037,1.4034,1.4022,1.4012,1.4011,1.401,1.401,1.4018,1.4019,0,0,0,0,0,0,1.4197,1.4188,1.4151,1.4148,1.4161,1.4126,1.412,1.4113,1.4076,1.407,1.4085,1.4083,1.4039,1.4035,1.4032,1.4043,1.4011,1.401,1.4009,1.4018,1.4019,1.402,0,0,0,0,0,0,1.4199,1.4195,1.4153,1.4167,1.4161,1.4126,1.4119,1.4113,1.4105,1.407,1.4064,1.4085,1.4038,1.4033,1.4029,1.404,1.4009,1.4008,1.4016,1.4018,1.4019,1.4065,0,0,0,0,0,0,1.42,1.4195,1.4199,1.4168,1.416,1.4151,1.412,1.4112,1.4103,1.4099,1.4068,1.4062,1.4037,1.4031,1.4028,1.4038,1.4007,1.4015,1.4017,1.4019,1.4062,1.4068,1.4073,0,0,0,0,0,1.4202,1.4214,1.42,1.4196,1.4165,1.4152,1.4148,1.4119,1.4105,1.4108,1.4086,1.4063,1.404,1.4031,1.4027,1.4037,1.4014,1.4017,1.4019,1.406,1.4067,1.4073,0,0,0,0,0,0,1.4247,1.4209,1.4193,1.4195,1.4177,1.4144,1.4148,1.4127,1.4113,1.411,1.4075,1.4068,1.4068,1.4052,1.4043,1.4046,1.4024,1.4025,1.4057,1.4063,1.4068,1.4072,1.4006,0,0,0,0,0,1.4257,1.4251,1.4217,1.4222,1.4214,1.4183,1.4176,1.4156,1.4136,1.4128,1.4105,1.4086,1.4075,1.4068,1.4055,1.406,1.4053,1.4065,1.407,1.4075,1.4076,1.4078,1.4084,1.4027,1.4027,1.4027,0,0,1.4278,1.4256,1.4254,1.423,1.4214,1.4208,1.4176,1.4171,1.4166,1.4127,1.4121,1.4104,1.4081,1.4081,1.408,1.4068,1.409,1.4077,1.4081,1.408,1.4081,1.4086,1.4091,1.4028,1.4028,1.4028,0,0,1.4312,1.4295,1.4298,1.4283,1.4259,1.4238,1.4239,1.4209,1.4196,1.4191,1.4162,1.4155,1.4136,1.412,1.411,1.414,1.4118,1.4137,1.4164,1.4166,1.417,1.4174,1.4185,1.419,1.4138,1.4139,1.4139,0,1.4341,1.4331,1.4301,1.4298,1.4288,1.4254,1.4256,1.4242,1.4216,1.421,1.4196,1.4172,1.4154,1.4151,1.4158,1.4151,1.4151,1.414,1.4172,1.4176,1.4179,1.4189,1.4193,1.4141,1.4141,1.414,1.414,0,1.4367,1.4361,1.4365,1.4341,1.4332,1.4332,1.4302,1.4296,1.4277,1.4258,1.4253,1.423,1.4212,1.421,1.4191,1.4204,1.4197,1.4179,1.4155,1.4187,1.4196,1.42,1.4145,1.4144,1.4143,1.4142,0,0,1.4428,1.4389,1.4391,1.438,1.4352,1.4346,1.4344,1.4328,1.4324,1.4307,1.4304,1.4289,1.4272,1.426,1.4239,1.4241,1.4267,1.4222,1.4221,1.4232,1.4282,1.4296,1.4301,1.4253,1.4253,1.4254,1.4284,0,1.4458,1.4453,1.4427,1.4429,1.4423,1.439,1.4388,1.4371,1.4353,1.4345,1.4324,1.4315,1.4292,1.4285,1.4286,1.4264,1.4277,1.4262,1.425,1.425,1.4257,1.4306,1.4321,1.435,1.4287,1.4288,1.4288,0,1.4493,1.4479,1.4481,1.4454,1.445,1.4449,1.4433,1.4425,1.4405,1.4391,1.4379,1.4356,1.4351,1.433,1.4324,1.4314,1.4307,1.4296,1.4297,1.4295,1.4271,1.4306,1.4359,1.4364,1.4293,1.4293,1.4292,0,1.4538,1.452,1.4519,1.451,1.4478,1.4479,1.4465,1.4444,1.4436,1.4421,1.4416,1.4401,1.4393,1.4381,1.4354,1.4341,1.4352,1.4327,1.4341,1.4341,1.4344,1.4345,1.4398,1.434,1.434,1.434,1.4339,0,1.4574,1.4577,1.4539,1.4538,1.454,1.451,1.4513,1.4496,1.4478,1.4473,1.4444,1.444,1.4405,1.4397,1.4376,1.4375,1.4371,1.436,1.4354,1.4363,1.4364,1.4358,1.4356,1.4341,1.434,1.434,1.434,0,1.4625,1.46,1.4597,1.4567,1.456,1.4563,1.4537,1.4535,1.4516,1.4511,1.4508,1.4477,1.4467,1.4439,1.4421,1.4406,1.4411,1.44,1.4418,1.4415,1.443,1.4429,1.4482,1.4487,1.4425,1.4426,1.4426,0,1.4651,1.4652,1.4623,1.4618,1.4607,1.4599,1.4592,1.4562,1.4555,1.4532,1.4533,1.4521,1.4509,1.4494,1.447,1.4456,1.4445,1.4464,1.4443,1.4451,1.4446,1.4447,1.4447,1.4469,1.447,1.4471,1.4471,0,1.4698,1.4686,1.4676,1.4663,1.4655,1.4642,1.4628,1.4625,1.4592,1.4586,1.4575,1.4566,1.4549,1.4537,1.4519,1.4505,1.4483,1.4478,1.4481,1.449,1.45,1.4496,1.4432,1.4477,1.4477,1.4476,1.4476,1.4476,1.4738,1.4738,1.4718,1.4708,1.4695,1.4682,1.468,1.466,1.4651,1.4635,1.4618,1.4609,1.4589,1.4564,1.4551,1.4544,1.4532,1.4535,1.4536,1.4538,1.4542,1.4501,1.454,1.454,1.454,1.454,1.454,0,1.4785,1.477,1.4762,1.4743,1.4736,1.4717,1.47,1.4695,1.4688,1.4672,1.4661,1.4649,1.4638,1.4613,1.4599,1.4598,1.4588,1.4596,1.4596,1.4593,1.4553,1.4553,1.4604,1.4604,1.4604,1.4604,1.4604,1.4604,1.4808,1.4808,1.4793,1.4786,1.4771,1.4763,1.4756,1.4744,1.4731,1.4719,1.471,1.4694,1.4674,1.4659,1.4648,1.4641,1.4637,1.4649,1.4638,1.4602,1.4596,1.459,1.4589,1.4648,1.4648,1.4679,1.4679,1.4679]}]]